1512363600.49,41033,3.25,72648.8,-13.79,-44.73,-44.21,0,*6E
1512363601.73,41034,3.25,72648.5,-13.81,-44.33,-43.95,0,*62
1512363602.97,41035,3.25,72654.0,-13.79,-43.87,-43.61,0,*67
1512363604.24,41036,3.25,72644.0,-13.79,-43.61,-43.21,0,*68
1512363605.48,41037,3.25,72644.5,-13.77,-44.07,-43.81,0,*6A
1512363606.73,41038,3.19,72644.0,-13.77,-44.27,-44.01,0,*68
1512363607.97,41039,3.25,72646.5,-13.77,-44.53,-44.21,0,*68
1512363609.21,41040,3.25,72646.0,-13.77,-44.53,-44.21,0,*66
1512363610.48,41041,3.25,72644.0,-13.77,-44.73,-44.47,0,*65
1512363611.76,41042,3.25,72636.0,-13.75,-44.47,-44.01,0,*61
1512363613.05,41043,3.25,72638.0,-13.75,-44.33,-44.01,0,*63
1512363614.34,41044,3.25,72640.5,-13.75,-44.67,-44.21,0,*67
1512363615.58,41045,3.25,72638.0,-13.75,-44.99,-44.61,0,*63
1512363616.84,41046,3.25,72642.3,-13.75,-44.99,-44.67,0,*66
1512363618.08,41047,3.25,72634.5,-13.75,-44.99,-44.61,0,*61
1512363619.35,41048,3.19,72634.5,-13.75,-44.61,-44.13,0,*6C
1512363620.61,41049,3.25,72636.5,-13.75,-44.13,-43.61,0,*6A
1512363621.86,41050,3.19,72634.8,-13.75,-43.95,-43.41,0,*69
1512363623.12,41051,3.25,72638.8,-13.75,-44.67,-44.41,0,*65
1512363624.36,41052,3.25,72642.3,-13.75,-45.21,-44.87,0,*6F
1512363625.63,41053,3.25,72642.5,-13.75,-44.47,-43.95,0,*6B
1512363626.88,41054,3.25,72640.5,-13.75,-43.75,-43.41,0,*63
1512363628.13,41055,3.25,72636.0,-13.71,-43.21,-42.89,0,*62
1512363629.38,41056,3.25,72634.3,-13.69,-43.09,-42.63,0,*66
1512363630.65,41057,3.19,72632.3,-13.69,-43.09,-42.69,0,*6D
1512363631.86,41058,3.25,72634.8,-13.65,-43.41,-43.01,0,*6D
1512363633.13,41059,3.25,72636.3,-13.65,-44.21,-43.81,0,*65
1512363634.37,41060,3.25,72636.8,-13.67,-44.41,-43.95,0,*6E
1512363635.62,41061,3.25,72630.8,-13.67,-44.27,-43.75,0,*61
1512363636.87,41062,3.25,72628.3,-13.67,-44.13,-43.87,0,*68
1512363638.09,41063,3.19,72622.3,-13.65,-44.27,-43.87,0,*6C
1512363639.34,41064,3.25,72632.5,-13.65,-44.53,-44.21,0,*63
1512363640.58,41065,3.25,72632.3,-13.65,-43.61,-43.21,0,*63
1512363641.83,41066,3.25,72628.8,-13.65,-43.49,-43.09,0,*60
1512363643.07,41067,3.25,72634.5,-13.63,-43.67,-43.49,0,*6F
1512363644.33,41068,3.25,72634.5,-13.63,-43.81,-43.21,0,*66
1512363645.58,41069,3.25,72632.0,-13.61,-43.95,-43.61,0,*64
1512363646.82,41070,3.25,72622.8,-13.63,-44.07,-43.67,0,*64
1512363648.07,41071,3.19,72616.3,-13.63,-44.07,-43.67,0,*65
1512363649.32,41072,3.19,72618.3,-13.61,-44.27,-43.95,0,*6B
1512363650.61,41073,3.25,72622.5,-13.61,-44.21,-43.81,0,*69
1512363651.86,41074,3.25,72622.8,-13.61,-44.27,-43.95,0,*6D
1512363653.16,41075,3.25,72628.3,-13.61,-44.21,-43.81,0,*6F
1512363654.44,41076,3.19,72626.8,-13.61,-44.13,-43.81,0,*6D
1512363655.71,41077,3.25,72626.3,-13.59,-43.81,-43.55,0,*62
1512363656.93,41078,3.25,72634.5,-13.59,-43.95,-43.61,0,*6F
1512363658.18,41079,3.25,72634.5,-13.59,-44.21,-43.75,0,*63
1512363659.45,41080,3.25,72642.5,-13.59,-44.21,-43.81,0,*6E
1512363660.71,41081,3.19,72638.8,-13.59,-44.21,-43.81,0,*6F
1512363661.97,41082,3.19,72628.0,-13.57,-43.75,-43.35,0,*6B
1512363663.26,41083,3.25,72626.5,-13.57,-43.55,-43.29,0,*65
1512363664.56,41084,3.25,72620.0,-13.57,-42.83,-42.45,0,*63
1512363665.83,41085,3.19,72626.0,-13.57,-43.95,-43.55,0,*64
1512363667.07,41086,3.25,72626.8,-13.55,-44.07,-43.55,0,*69
1512363668.32,41087,3.25,72628.8,-13.55,-43.95,-43.67,0,*65
1512363669.6,41088,3.25,72630.0,-13.53,-43.81,-43.21,0,*6B
1512363670.84,41089,3.19,72626.0,-13.55,-43.41,-43.21,0,*60
1512363672.09,41090,3.25,72628.3,-13.55,-43.67,-43.35,0,*69
1512363673.36,41091,3.25,72626.8,-13.53,-43.61,-43.21,0,*6D
1512363674.6,41092,3.25,72628.3,-13.53,-43.87,-43.41,0,*60
1512363675.87,41093,3.25,72628.8,-13.49,-43.81,-43.49,0,*64
1512363677.13,41094,3.19,72626.5,-13.49,-43.29,-42.89,0,*6C
1512363678.39,41095,3.25,72632.3,-13.49,-43.29,-42.89,0,*6D
1512363679.64,41096,3.25,72632.8,-13.49,-43.41,-42.89,0,*60
1512363680.9,41097,3.25,72630.8,-13.49,-43.49,-43.29,0,*62
1512363682.17,41098,3.25,72634.0,-13.49,-43.81,-43.41,0,*67
1512363683.42,41099,3.25,72634.0,-13.49,-44.07,-43.61,0,*6D
1512363684.65,41100,3.25,72634.3,-13.47,-44.07,-43.81,0,*6C
1512363685.87,41101,3.19,72630.3,-13.47,-44.41,-43.95,0,*6A
1512363687.16,41102,3.25,72632.0,-13.49,-44.33,-44.01,0,*68
1512363688.38,41103,3.19,72632.3,-13.47,-43.95,-43.61,0,*6D
1512363689.6,41104,3.25,72638.8,-13.47,-43.41,-43.15,0,*60
1512363690.87,41105,3.25,72620.0,-13.45,-44.01,-43.61,0,*63
1512363692.13,41106,3.25,72606.3,-13.45,-44.61,-44.47,0,*65
1512363693.38,41107,3.25,72600.5,-13.45,-45.33,-45.07,0,*67
1512363694.66,41108,3.25,72596.3,-13.47,-45.27,-45.07,0,*6F
1512363695.93,41109,3.25,72602.0,-13.49,-44.93,-44.87,0,*67
1512363697.22,41110,3.25,72598.3,-13.49,-44.93,-44.73,0,*64
1512363698.48,41111,3.25,72600.0,-13.49,-44.87,-44.87,0,*6B
1512363699.74,41112,3.25,72596.5,-13.49,-45.13,-45.07,0,*6D
1512363701.01,41113,3.25,72602.3,-13.53,-45.13,-44.93,0,*6B
1512363702.3,41114,3.25,72614.3,-13.53,-45.07,-44.93,0,*69
1512363703.6,41115,3.25,72624.5,-13.53,-44.93,-44.93,0,*64
1512363704.9,41116,3.25,72616.5,-13.53,-45.27,-45.07,0,*65
1512363706.1,41117,3.25,72618.0,-13.55,-45.33,-45.13,0,*62
1512363707.4,41118,3.25,72636.0,-13.53,-45.07,-44.93,0,*65
1512363708.61,41119,3.25,72640.3,-13.55,-45.13,-44.99,0,*6D
1512363709.82,41120,3.25,72642.5,-13.55,-45.21,-45.13,0,*65
1512363711.06,41121,3.25,72642.5,-13.57,-45.33,-45.13,0,*65
1512363712.3,41122,3.25,72630.3,-13.57,-45.21,-45.13,0,*65
1512363713.55,41123,3.25,72636.0,-13.57,-45.33,-45.21,0,*66
1512363714.79,41124,3.25,72634.8,-13.59,-45.07,-44.99,0,*6A
1512363716.09,41125,3.25,72620.0,-13.57,-44.13,-43.55,0,*66
1512363717.33,41126,3.25,72622.5,-13.59,-43.61,-43.81,0,*60
1512363718.59,41127,3.19,72624.0,-13.61,-44.41,-44.47,0,*62
1512363719.84,41128,3.25,72634.3,-13.61,-44.87,-44.99,0,*64
1512363721.08,41129,3.25,72644.0,-13.61,-44.99,-44.79,0,*64
1512363722.35,41130,3.25,72650.0,-13.61,-44.79,-44.67,0,*6D
1512363723.61,41131,3.25,72632.3,-13.61,-44.61,-44.01,0,*65
1512363724.88,41132,3.25,72630.8,-13.61,-44.01,-43.75,0,*64
1512363726.15,41133,3.19,72626.3,-13.61,-44.21,-43.75,0,*67
1512363727.39,41134,3.25,72630.3,-13.59,-44.13,-43.75,0,*6A
1512363728.62,41135,3.25,72628.0,-13.59,-44.27,-43.95,0,*62
1512363729.87,41136,3.19,72620.3,-13.59,-44.61,-44.21,0,*6B
1512363731.17,41137,3.25,72608.3,-13.57,-44.93,-44.73,0,*6E
1512363732.39,41138,3.25,72598.5,-13.59,-44.79,-44.61,0,*68
1512363733.62,41139,3.25,72624.3,-13.59,-44.87,-44.61,0,*68
1512363734.92,41140,3.25,72622.0,-13.57,-44.93,-44.73,0,*6E
1512363736.17,41141,3.25,72622.8,-13.59,-45.07,-44.87,0,*66
1512363737.46,41142,3.25,72634.8,-13.61,-45.07,-45.07,0,*67
1512363738.75,41143,3.25,72636.3,-13.61,-45.47,-45.27,0,*60
1512363740.04,41144,3.25,72646.3,-13.61,-45.47,-45.27,0,*67
1512363741.33,41145,3.25,72642.3,-13.61,-45.27,-45.07,0,*62
1512363742.61,41146,3.25,72642.0,-13.63,-45.27,-45.27,0,*61
1512363743.88,41147,3.25,72640.3,-13.63,-45.27,-45.07,0,*62
1512363745.1,41148,3.25,72636.8,-13.63,-45.53,-45.33,0,*69
1512363746.38,41149,3.25,72624.0,-13.63,-45.27,-45.07,0,*6C
1512363747.64,41150,3.25,72632.5,-13.63,-45.47,-45.27,0,*60
1512363748.88,41151,3.25,72634.5,-13.63,-45.33,-45.27,0,*62
1512363750.1,41152,3.25,72642.3,-13.63,-45.53,-45.33,0,*62
1512363751.33,41153,3.25,72624.5,-13.67,-45.41,-45.21,0,*67
1512363752.57,41154,3.25,72632.8,-13.67,-45.13,-44.99,0,*65
1512363753.82,41155,3.25,72640.3,-13.67,-45.21,-45.21,0,*67
1512363755.06,41156,3.25,72636.3,-13.67,-45.21,-44.99,0,*66
1512363756.29,41157,3.25,72636.0,-13.67,-45.33,-45.41,0,*60
1512363757.52,41158,3.25,72644.5,-13.71,-45.67,-45.61,0,*6B
1512363758.76,41159,3.25,72630.5,-13.67,-45.13,-44.99,0,*68
1512363759.97,41160,3.25,72624.8,-13.69,-45.67,-45.61,0,*69
1512363761.23,41161,3.25,72626.5,-13.71,-45.47,-45.41,0,*61
1512363762.44,41162,3.19,72622.8,-13.69,-44.99,-45.13,0,*6E
1512363763.7,41163,3.19,72608.5,-13.71,-45.07,-44.99,0,*63
1512363764.97,41164,3.25,72622.3,-13.71,-45.07,-44.87,0,*6B
1512363766.21,41165,3.25,72628.5,-13.71,-44.87,-44.99,0,*6C
1512363767.46,41166,3.25,72646.8,-13.75,-44.79,-44.87,0,*65
1512363768.71,41167,3.25,72650.0,-13.75,-44.79,-44.87,0,*64
1512363769.97,41168,3.19,72652.3,-13.75,-44.67,-44.41,0,*6E
1512363771.26,41169,3.25,72652.3,-13.75,-44.67,-44.67,0,*6B
1512363772.52,41170,3.25,72644.5,-13.75,-45.07,-44.99,0,*65
1512363773.79,41171,3.25,72642.3,-13.75,-45.07,-44.99,0,*64
1512363775.03,41172,3.25,72638.8,-13.75,-44.79,-44.79,0,*61
1512363776.3,41173,3.25,72634.3,-13.77,-44.67,-44.93,0,*69
1512363777.57,41174,3.25,72620.5,-13.77,-44.67,-44.93,0,*6E
1512363778.84,41175,3.25,72608.0,-13.77,-44.93,-44.93,0,*64
1512363780.11,41176,3.25,72630.3,-13.77,-44.73,-44.67,0,*62
1512363781.37,41177,3.25,72636.0,-13.77,-44.73,-44.67,0,*63
1512363782.61,41178,3.25,72640.0,-13.77,-44.53,-44.73,0,*6B
1512363783.88,41179,3.25,72642.5,-13.79,-44.41,-44.93,0,*69
1512363785.15,41180,3.25,72656.0,-13.79,-44.53,-45.07,0,*60
1512363786.39,41181,3.25,72658.8,-13.81,-44.93,-44.79,0,*62
1512363787.64,41182,3.19,72646.5,-13.81,-44.99,-44.93,0,*6F
1512363788.92,41183,3.25,72648.0,-13.79,-45.07,-44.87,0,*6A
1512363790.13,41184,3.25,72648.8,-13.81,-44.61,-44.53,0,*62
1512363791.4,41185,3.25,72652.0,-13.81,-44.73,-44.73,0,*62
1512363792.66,41186,3.19,72642.5,-13.81,-44.79,-44.93,0,*65
1512363793.91,41187,3.19,72636.3,-13.81,-44.93,-44.79,0,*64
1512363795.16,41188,3.19,72634.5,-13.81,-44.93,-44.79,0,*6B
1512363796.42,41189,3.25,72642.8,-13.83,-44.61,-44.33,0,*6B
1512363797.65,41190,3.25,72646.0,-13.85,-44.79,-44.41,0,*69
1512363798.91,41191,3.19,72648.0,-13.83,-44.53,-44.47,0,*60
1512363800.15,41192,3.25,72652.5,-13.85,-44.67,-44.53,0,*67
1512363801.37,41193,3.25,72644.3,-13.85,-44.61,-44.79,0,*68
1512363802.61,41194,3.25,72646.8,-13.85,-45.07,-45.41,0,*64
1512363803.83,41195,3.25,72646.3,-13.85,-45.21,-45.41,0,*61
1512363805.06,41196,3.19,72636.8,-13.85,-44.99,-44.87,0,*6B
1512363806.35,41197,3.25,72636.0,-13.87,-45.47,-45.27,0,*61
1512363807.61,41198,3.25,72640.0,-13.87,-45.81,-45.61,0,*66
1512363808.86,41199,3.25,72644.3,-13.89,-45.47,-45.33,0,*64
1512363810.08,41200,3.25,72644.3,-13.89,-45.53,-45.33,0,*62
1512363811.33,41201,3.25,72636.5,-13.89,-44.67,-44.27,0,*61
1512363812.56,41202,3.25,72646.8,-13.89,-44.87,-44.61,0,*6E
1512363813.83,41203,3.25,72640.0,-13.87,-44.61,-44.21,0,*6D
1512363815.08,41204,3.25,72640.0,-13.89,-44.01,-43.61,0,*61
1512363816.31,41205,3.25,72640.8,-13.85,-43.75,-43.35,0,*69
1512363817.53,41206,3.25,72638.3,-13.85,-43.41,-43.15,0,*6F
1512363818.77,41207,3.25,72636.3,-13.83,-43.49,-43.01,0,*65
1512363820.07,41208,3.25,72636.0,-13.83,-43.29,-43.09,0,*64
1512363821.34,41209,3.25,72640.0,-13.81,-43.09,-42.83,0,*66
1512363822.63,41210,3.25,72636.3,-13.79,-42.83,-42.57,0,*63
1512363823.86,41211,3.25,72632.8,-13.79,-42.63,-42.37,0,*6A
1512363825.11,41212,3.25,72630.5,-13.79,-42.37,-41.99,0,*6F
1512363826.37,41213,3.25,72642.0,-13.77,-42.45,-42.19,0,*6E
1512363827.67,41214,3.19,72638.8,-13.75,-42.31,-41.67,0,*62
1512363828.91,41215,3.25,72640.8,-13.69,-42.31,-41.99,0,*6F
1512363830.15,41216,3.25,72642.3,-13.69,-42.83,-42.51,0,*62
1512363831.37,41217,3.25,72622.5,-13.69,-42.51,-41.87,0,*64
1512363832.61,41218,3.25,72626.5,-13.67,-41.61,-41.87,0,*65
1512363833.87,41219,3.25,72638.3,-13.67,-42.51,-42.69,0,*67
1512363835.12,41220,3.25,72634.8,-13.65,-42.95,-42.75,0,*6A
1512363836.39,41221,3.25,72630.0,-13.65,-42.57,-42.19,0,*6F
1512363837.63,41222,3.19,72628.3,-13.63,-42.05,-41.61,0,*61
1512363838.9,41223,3.25,72632.3,-13.61,-41.55,-41.29,0,*68
1512363840.17,41224,3.25,72636.8,-13.59,-42.57,-42.31,0,*6F
1512363841.41,41225,3.25,72626.8,-13.59,-43.15,-42.95,0,*67
1512363842.66,41226,3.25,72628.3,-13.57,-42.89,-42.51,0,*66
1512363843.88,41227,3.19,72628.0,-13.59,-42.37,-41.99,0,*6B
1512363845.18,41228,3.25,72634.8,-13.57,-42.95,-42.45,0,*60
1512363846.42,41229,3.25,72630.5,-13.55,-42.63,-42.31,0,*69
1512363847.7,41230,3.25,72620.8,-13.53,-42.83,-42.45,0,*6A
1512363848.96,41231,3.25,72618.5,-13.53,-42.57,-42.37,0,*67
1512363850.21,41232,3.25,72620.0,-13.49,-42.89,-42.63,0,*6D
1512363851.45,41233,3.25,72618.5,-13.47,-42.83,-42.75,0,*6F
1512363852.75,41234,3.25,72616.0,-13.49,-43.09,-42.83,0,*6C
1512363853.96,41235,3.25,72628.0,-13.47,-43.35,-43.15,0,*62
1512363855.18,41236,3.25,72626.0,-13.47,-43.41,-43.01,0,*67
1512363856.42,41237,3.25,72620.3,-13.47,-43.55,-43.15,0,*66
1512363857.67,41238,3.25,72604.3,-13.47,-43.55,-43.35,0,*6B
1512363858.94,41239,3.25,72618.5,-13.45,-44.21,-43.95,0,*66
1512363860.19,41240,3.25,72620.8,-13.47,-44.01,-43.61,0,*63
1512363861.45,41241,3.25,72626.0,-13.45,-43.15,-42.83,0,*6F
1512363862.69,41242,3.25,72628.3,-13.45,-43.41,-43.01,0,*66
1512363863.93,41243,3.25,72636.8,-13.43,-43.55,-43.35,0,*63
1512363865.17,41244,3.25,72640.5,-13.45,-43.35,-43.01,0,*63
1512363866.44,41245,3.25,72650.0,-13.45,-43.15,-42.95,0,*6C
1512363867.73,41246,3.25,72648.3,-13.45,-43.21,-42.95,0,*68
1512363868.97,41247,3.25,72648.0,-13.43,-43.41,-43.21,0,*67
1512363870.2,41248,3.25,72632.8,-13.43,-43.61,-43.35,0,*6F
1512363871.47,41249,3.25,72606.0,-13.41,-43.55,-43.35,0,*6B
1512363872.75,41250,3.25,72606.0,-13.41,-44.21,-43.95,0,*6D
1512363874.02,41251,3.25,72610.8,-13.41,-44.13,-43.95,0,*6D
1512363875.26,41252,3.25,72600.8,-13.41,-44.61,-44.61,0,*67
1512363876.56,41253,3.25,72618.3,-13.41,-44.73,-44.73,0,*66
1512363877.78,41254,3.25,72628.8,-13.43,-44.87,-44.87,0,*63
1512363879.02,41255,3.25,72630.8,-13.43,-44.61,-44.47,0,*66
1512363880.31,41256,3.25,72626.0,-13.45,-44.21,-43.81,0,*6A
1512363881.58,41257,3.25,72632.3,-13.43,-44.21,-44.01,0,*62
1512363882.87,41258,3.25,72630.0,-13.45,-44.21,-43.81,0,*64
1512363884.11,41259,3.25,72630.0,-13.43,-43.95,-43.55,0,*62
1512363885.38,41260,3.25,72634.8,-13.45,-43.95,-43.55,0,*6E
1512363886.62,41261,3.25,72632.0,-13.43,-43.81,-43.41,0,*69
1512363887.84,41262,3.25,72624.8,-13.43,-43.41,-43.15,0,*67
1512363889.06,41263,3.25,72620.0,-13.43,-43.41,-43.15,0,*66
1512363890.27,41264,3.25,72618.8,-13.43,-43.35,-43.01,0,*67
1512363891.54,41265,3.25,72612.8,-13.41,-43.35,-42.95,0,*68
1512363892.8,41266,3.25,72626.8,-13.37,-43.29,-43.01,0,*6B
1512363894.05,41267,3.25,72626.0,-13.41,-43.75,-43.35,0,*65
1512363895.32,41268,3.25,72618.8,-13.37,-43.21,-42.89,0,*6C
1512363896.56,41269,3.25,72620.5,-13.37,-43.41,-43.01,0,*6A
1512363897.81,41270,3.25,72624.5,-13.37,-43.61,-43.41,0,*64
1512363899.1,41271,3.25,72626.5,-13.37,-43.67,-43.21,0,*65
1512363900.37,41272,3.25,72624.3,-13.37,-43.49,-43.09,0,*60
1512363901.63,41273,3.25,72628.5,-13.37,-43.09,-42.89,0,*6C
1512363902.92,41274,3.25,72628.3,-13.37,-43.81,-43.21,0,*68
1512363904.16,41275,3.25,72624.8,-13.35,-43.49,-43.21,0,*6F
1512363905.45,41276,3.25,72614.0,-13.37,-43.21,-43.09,0,*6A
1512363906.7,41277,3.25,72616.0,-13.35,-43.41,-42.95,0,*6B
1512363907.97,41278,3.25,72626.5,-13.35,-44.01,-43.55,0,*6A
1512363909.22,41279,3.25,72624.0,-13.33,-43.75,-43.41,0,*6C
1512363910.44,41280,3.25,72622.8,-13.35,-43.35,-43.01,0,*6C
1512363911.71,41281,3.25,72620.8,-13.35,-43.21,-42.95,0,*64
1512363912.95,41282,3.25,72620.0,-13.33,-43.41,-43.01,0,*6B
1512363914.25,41283,3.25,72626.3,-13.33,-43.21,-42.95,0,*60
1512363915.54,41284,3.25,72626.3,-13.33,-43.55,-43.21,0,*6A
1512363916.83,41285,3.25,72624.3,-13.29,-43.55,-43.09,0,*6A
1512363918.12,41286,3.25,72630.3,-13.33,-43.55,-43.21,0,*68
1512363919.4,41287,3.25,72620.5,-13.29,-42.75,-42.31,0,*61
1512363920.69,41288,3.25,72622.5,-13.29,-43.67,-43.29,0,*64
1512363921.95,41289,3.25,72630.5,-13.29,-44.33,-43.95,0,*64
1512363923.25,41290,3.25,72628.0,-13.29,-44.01,-43.67,0,*60
1512363924.49,41291,3.25,72628.3,-13.33,-44.07,-43.75,0,*6F
1512363925.74,41292,3.25,72630.3,-13.27,-43.55,-43.15,0,*6F
1512363926.99,41293,3.19,72624.0,-13.27,-43.49,-43.29,0,*6C
1512363928.24,41294,3.25,72628.5,-13.27,-43.09,-42.75,0,*67
1512363929.49,41295,3.25,72624.5,-13.27,-43.55,-43.15,0,*68
1512363930.71,41296,3.25,72624.8,-13.27,-43.95,-43.49,0,*6E
1512363931.96,41297,3.25,72626.5,-13.27,-43.81,-43.49,0,*6A
1512363933.21,41298,3.25,72630.5,-13.27,-43.81,-43.35,0,*6E
1512363934.5,41299,3.25,72632.3,-13.25,-43.67,-43.29,0,*68
1512363935.75,41300,3.25,72630.0,-13.27,-43.49,-42.95,0,*61
1512363937.02,41301,3.25,72630.5,-13.25,-43.35,-42.95,0,*69
1512363938.26,41302,3.25,72628.5,-13.25,-42.75,-42.51,0,*67
1512363939.51,41303,3.25,72628.8,-13.25,-42.75,-42.51,0,*66
1512363940.78,41304,3.25,72624.0,-13.21,-42.63,-42.19,0,*6E
1512363942.05,41305,3.25,72614.3,-13.21,-43.01,-42.83,0,*69
1512363943.3,41306,3.25,72614.8,-13.21,-44.27,-43.95,0,*6F
1512363944.54,41307,3.25,72628.5,-13.23,-44.33,-44.27,0,*67
1512363945.77,41308,3.25,72628.5,-13.21,-44.07,-43.87,0,*60
1512363947.02,41309,3.25,72626.8,-13.23,-43.41,-43.09,0,*60
1512363948.28,41310,3.25,72626.5,-13.21,-43.21,-43.01,0,*64
1512363949.55,41311,3.25,72626.8,-13.21,-43.29,-42.89,0,*6C
1512363950.81,41312,3.25,72626.0,-13.21,-42.89,-42.45,0,*64
1512363952.05,41313,3.25,72630.0,-13.15,-42.57,-42.37,0,*64
1512363953.28,41314,3.25,72630.3,-13.15,-42.89,-42.57,0,*66
1512363954.52,41315,3.25,72628.0,-13.19,-43.15,-42.83,0,*66
1512363955.76,41316,3.25,72632.0,-13.15,-43.29,-42.89,0,*6C
1512363957.01,41317,3.25,72636.3,-13.15,-43.55,-43.15,0,*62
1512363958.27,41318,3.25,72634.8,-13.19,-44.01,-43.81,0,*6A
1512363959.54,41319,3.25,72622.5,-13.15,-44.01,-43.55,0,*6E
1512363960.78,41320,3.25,72630.8,-13.15,-43.81,-43.75,0,*69
1512363962.03,41321,3.25,72626.5,-13.15,-43.81,-43.49,0,*67
1512363963.28,41322,3.25,72624.8,-13.15,-44.87,-44.73,0,*6B
1512363964.5,41323,3.25,72630.8,-13.15,-44.87,-44.61,0,*69
1512363965.75,41324,3.25,72626.8,-13.15,-44.99,-44.73,0,*62
1512363966.97,41325,3.25,72634.0,-13.19,-44.87,-44.61,0,*63
1512363968.24,41326,3.25,72632.0,-13.19,-44.93,-44.67,0,*63
1512363969.46,41327,3.25,72630.3,-13.19,-45.13,-44.87,0,*65
1512363970.71,41328,3.25,72624.3,-13.23,-45.21,-44.93,0,*67
1512363971.95,41329,3.25,72624.8,-13.23,-44.99,-44.73,0,*6A
1512363973.17,41330,3.25,72634.3,-13.23,-45.13,-44.99,0,*65
1512363974.43,41331,3.25,72616.8,-13.23,-44.93,-44.67,0,*6C
1512363975.65,41332,3.25,72616.8,-13.23,-44.53,-44.27,0,*67
1512363976.92,41333,3.25,72620.5,-13.23,-44.67,-44.73,0,*60
1512363978.16,41334,3.25,72620.3,-13.25,-44.79,-44.79,0,*64
1512363979.4,41335,3.25,72616.8,-13.25,-45.41,-45.21,0,*63
1512363980.65,41336,3.25,72626.8,-13.27,-45.21,-45.07,0,*60
1512363981.91,41337,3.25,72628.0,-13.25,-45.41,-45.27,0,*67
1512363983.16,41338,3.25,72626.5,-13.27,-45.41,-45.27,0,*6A
1512363984.43,41339,3.25,72632.3,-13.29,-45.27,-44.99,0,*61
1512363985.67,41340,3.25,72630.3,-13.33,-44.99,-44.79,0,*6E
1512363986.96,41341,3.25,72628.8,-13.29,-44.13,-44.13,0,*6A
1512363988.23,41342,3.25,72626.5,-13.29,-44.01,-43.75,0,*6D
1512363989.5,41343,3.25,72628.0,-13.33,-43.87,-43.55,0,*6C
1512363990.79,41344,3.25,72634.8,-13.29,-43.67,-43.29,0,*65
1512363992.06,41345,3.25,72638.0,-13.29,-43.95,-43.55,0,*62
1512363993.34,41346,3.25,72632.5,-13.29,-44.33,-44.33,0,*6D
1512363994.59,41347,3.25,72636.0,-13.27,-44.41,-44.33,0,*67
1512363995.83,41348,3.25,72632.8,-13.27,-44.73,-44.53,0,*6F
1512363997.1,41349,3.25,72636.0,-13.29,-44.53,-44.33,0,*64
1512363998.33,41350,3.25,72632.3,-13.29,-44.61,-44.53,0,*6B
1512363999.63,41351,3.25,72628.5,-13.29,-44.21,-44.01,0,*69
1512364000.9,41352,3.25,72628.8,-13.33,-44.21,-43.95,0,*6B
1512364002.2,41353,3.25,72630.3,-13.29,-44.01,-43.67,0,*6E
1512364003.45,41354,3.25,72638.8,-13.33,-44.27,-44.07,0,*67
1512364004.71,41355,3.25,72638.3,-13.29,-44.53,-44.33,0,*69
1512364005.96,41356,3.25,72638.8,-13.29,-44.79,-44.53,0,*64
1512364007.25,41357,3.25,72636.0,-13.29,-43.55,-43.29,0,*66
1512364008.52,41358,3.25,72600.0,-13.33,-44.07,-43.67,0,*68
1512364009.81,41359,3.25,72612.5,-13.29,-44.33,-44.33,0,*63
1512364011.05,41360,3.25,72614.3,-13.27,-44.41,-44.13,0,*60
1512364012.27,41361,3.25,72602.5,-13.27,-44.61,-44.53,0,*67
1512364013.54,41362,3.25,72616.5,-13.27,-44.93,-44.73,0,*6B
1512364014.79,41363,3.25,72622.0,-13.27,-45.07,-44.79,0,*6C
1512364016.03,41364,3.25,72620.0,-13.29,-44.79,-44.53,0,*65
1512364017.3,41365,3.25,72622.3,-13.29,-44.53,-44.33,0,*6A
1512364018.54,41366,3.25,72626.5,-13.29,-44.79,-44.53,0,*67
1512364019.81,41367,3.25,72626.0,-13.29,-44.53,-44.33,0,*68
1512364021.1,41368,3.25,72630.5,-13.29,-44.13,-44.13,0,*61
1512364022.39,41369,3.25,72634.3,-13.29,-44.21,-44.13,0,*61
1512364023.63,41370,3.25,72638.3,-13.29,-44.61,-44.53,0,*69
1512364024.89,41371,3.25,72632.8,-13.29,-44.73,-44.53,0,*6B
1512364026.16,41372,3.25,72626.5,-13.33,-44.41,-44.21,0,*67
1512364027.43,41373,3.25,72626.3,-13.33,-44.79,-44.47,0,*6D
1512364028.67,41374,3.25,72632.0,-13.33,-44.99,-44.79,0,*69
1512364029.92,41375,3.25,72624.5,-13.33,-45.13,-44.87,0,*6A
1512364031.22,41376,3.25,72624.5,-13.33,-45.27,-45.07,0,*67
1512364032.48,41377,3.25,72626.8,-13.33,-45.47,-45.13,0,*65
1512364033.74,41378,3.25,72624.3,-13.33,-44.99,-44.67,0,*6A
1512364034.99,41379,3.25,72622.3,-13.35,-45.07,-44.79,0,*64
1512364036.19,41380,3.25,72622.3,-13.35,-45.33,-44.99,0,*6B
1512364037.43,41381,3.25,72626.5,-13.35,-45.33,-45.27,0,*6E
1512364038.65,41382,3.25,72630.0,-13.35,-45.61,-45.53,0,*69
1512364039.91,41383,3.25,72626.8,-13.35,-45.73,-45.47,0,*6E
1512364041.14,41384,3.25,72628.3,-13.37,-45.41,-45.41,0,*6C
1512364042.38,41385,3.25,72626.3,-13.37,-45.53,-45.41,0,*6E
1512364043.62,41386,3.25,72626.5,-13.37,-45.41,-45.33,0,*6B
1512364044.86,41387,3.25,72638.5,-13.37,-45.41,-45.41,0,*6F
1512364046.09,41388,3.25,72630.0,-13.37,-45.41,-45.13,0,*67
1512364047.36,41389,3.25,72630.8,-13.41,-44.99,-44.93,0,*6A
1512364048.61,41390,3.25,72630.8,-13.41,-44.99,-44.79,0,*66
1512364049.88,41391,3.25,72626.3,-13.41,-44.93,-44.61,0,*64
1512364051.14,41392,3.25,72628.8,-13.37,-44.87,-44.67,0,*65
1512364052.38,41393,3.25,72628.0,-13.41,-44.53,-44.53,0,*6B
1512364053.66,41394,3.25,72618.0,-13.41,-44.79,-44.73,0,*66
1512364054.9,41395,3.25,72626.8,-13.41,-45.13,-44.79,0,*60
1512364056.18,41396,3.25,72626.8,-13.41,-44.79,-44.73,0,*64
1512364057.45,41397,3.25,72624.3,-13.41,-45.13,-44.93,0,*66
1512364058.73,41398,3.25,72632.5,-13.41,-45.27,-45.13,0,*67
1512364060.01,41399,3.25,72638.5,-13.41,-45.27,-45.21,0,*67
1512364061.24,41400,3.25,72636.3,-13.41,-45.41,-44.99,0,*62
1512364062.51,41401,3.25,72636.0,-13.43,-45.47,-45.27,0,*63
1512364063.77,41402,3.25,72646.8,-13.45,-45.21,-45.07,0,*64
1512364065.02,41403,3.25,72652.5,-13.43,-45.27,-44.99,0,*63
1512364066.24,41404,3.25,72650.0,-13.43,-44.79,-44.61,0,*69
1512364067.5,41405,3.25,72646.5,-13.45,-44.67,-44.61,0,*61
1512364068.74,41406,3.25,72630.5,-13.45,-44.99,-44.99,0,*64
1512364070.01,41407,3.25,72626.5,-13.45,-45.27,-44.99,0,*61
1512364071.3,41408,3.25,72636.0,-13.45,-45.07,-45.07,0,*6A
1512364072.6,41409,3.25,72634.0,-13.45,-45.07,-45.07,0,*6B
1512364073.87,41410,3.19,72630.0,-13.45,-45.27,-45.21,0,*65
1512364075.14,41411,3.25,72628.8,-13.45,-45.07,-44.87,0,*6B
1512364076.38,41412,3.25,72632.0,-13.45,-45.21,-44.99,0,*63
1512364077.68,41413,3.19,72630.0,-13.45,-45.27,-45.07,0,*62
1512364078.95,41414,3.25,72628.3,-13.43,-45.27,-45.07,0,*63
1512364080.22,41415,3.25,72624.5,-13.47,-45.47,-45.27,0,*62
1512364081.46,41416,3.25,72624.3,-13.47,-45.47,-45.53,0,*62
1512364082.7,41417,3.25,72626.0,-13.47,-45.53,-45.47,0,*63
1512364083.92,41418,3.25,72626.3,-13.47,-45.53,-45.53,0,*69
1512364085.17,41419,3.25,72634.0,-13.49,-45.61,-45.53,0,*67
1512364086.44,41420,3.25,72638.8,-13.49,-45.53,-45.73,0,*6E
1512364087.65,41421,3.25,72636.0,-13.55,-45.87,-45.87,0,*60
1512364088.91,41422,3.25,72636.0,-13.53,-45.73,-45.61,0,*66
1512364090.12,41423,3.25,72638.5,-13.55,-45.67,-45.61,0,*64
1512364091.36,41424,3.25,72638.5,-13.53,-45.61,-45.33,0,*64
1512364092.57,41425,3.25,72628.0,-13.55,-45.41,-45.13,0,*63
1512364093.84,41426,3.25,72632.5,-13.55,-45.27,-44.93,0,*69
1512364095.05,41427,3.25,72634.0,-13.55,-45.33,-45.21,0,*65
1512364096.32,41428,3.25,72628.3,-13.57,-45.61,-45.47,0,*6F
1512364097.57,41429,3.25,72640.3,-13.57,-45.61,-45.41,0,*68
1512364098.8,41430,3.25,72632.5,-13.57,-45.33,-44.99,0,*63
1512364100.02,41431,3.25,72634.0,-13.59,-45.41,-45.21,0,*6B
1512364101.23,41432,3.25,72630.0,-13.55,-45.13,-44.99,0,*61